Location: Poughquag
(41.6090°N, 73.6820°W)
Time: 16:37:01
(UTC-05:00)

Envisat - Pass Details

Date: 17 January 2020
Orbit: 764 x 766 km, 98.1° (Epoch: 24 February)

Event Time Altitude Azimuth Distance (km) Brightness Sun altitude
Rises 19:04:54 0° 211° (SSW) 3,220 6.7 -24.6°
Reaches altitude 10° 19:08:08 10° 233° (SW) 2,299 6.2 -25.2°
Maximum altitude 19:11:08 16° 270° (W) 1,935 6.0 -25.7°
Drops below altitude 10° 19:14:09 10° 306° (NW) 2,309 6.1 -26.3°
Sets 19:17:26 0° 329° (NNW) 3,241 6.6 -26.9°
